Stations météo

Publicité
Biscarosse, France (7503): Température de l'air & dewpoint: 19.05.2017 08:00:00 - 25.05.2017 08:00:00 (CEST)Biscarosse, France (7503): Température de l'air 5cm: 19.05.2017 08:00:00 - 25.05.2017 08:00:00 (CEST)Biscarosse, France (7503): Température de l'air -20cm & Température de l'air -100cm: 19.05.2017 08:00:00 - 25.05.2017 08:00:00 (CEST)Biscarosse, France (7503): Vitesse du vent & gusts: 19.05.2017 08:00:00 - 25.05.2017 08:00:00 (CEST)Biscarosse, France (7503): Direction du vent: 19.05.2017 08:00:00 - 25.05.2017 08:00:00 (CEST)Biscarosse, France (7503): reduced air pressure: 19.05.2017 08:00:00 - 25.05.2017 08:00:00 (CEST)Biscarosse, France (7503): visibility: 19.05.2017 08:00:00 - 25.05.2017 08:00:00 (CEST)Biscarosse, France (7503): Ensoleillement: 19.05.2017 08:00:00 - 25.05.2017 08:00:00 (CEST)Biscarosse, France (7503): Quantités de précipitations: 19.05.2017 08:00:00 - 25.05.2017 08:00:00 (CEST)
Date & Time tt [°C] td [°C] tt 5cm [°C] tt -20cm [°C] tt -100cm [°C] ff [km/h] ff [knt] fx [km/h] fx [knt] dd ppp [hPa] vv [km] sd [min] rr [mm]
25.05.2017 08:00:00 19,3 13,9 16,5 25,1 20,3 12 6 26 14 E 1015,3 20 27 0,0
25.05.2017 07:00:00 17,6 13,3 16,4 25,4 20,3 14 7 27 14 E 1015,4 20 0 0,0
25.05.2017 06:00:00 18,0 13,7 16,8 25,8 20,2 15 8 28 15 ENE 1015,4 20 0 0,0
25.05.2017 05:00:00 19,0 14,0 17,8 26,1 20,2 16 9 30 16 ENE 1015,5 20 0 0,0
25.05.2017 04:00:00 19,4 14,4 17,9 26,5 20,2 15 8 24 13 ENE 1015,8 20 0 0,0
25.05.2017 03:00:00 20,0 14,8 18,0 26,8 20,1 11 6 20 11 ENE 1016,3 20 0 0,0
25.05.2017 02:00:00 20,9 15,0 19,0 27,2 20,1 12 7 18 10 ENE 1016,9 20 0 0,0
25.05.2017 01:00:00 21,7 13,3 17,7 27,6 20,1 10 5 14 8 ENE 1017,4 20 0 0,0
25.05.2017 00:00:00 21,9 12,7 17,8 27,9 20,1 9 5 15 8 ENE 1017,8 20 0 0,0
24.05.2017 23:00:00 22,6 11,3 17,9 28,2 20,1 10 5 16 8 E 1017,9 20 0 0,0
24.05.2017 22:00:00 24,1 10,4 18,8 28,3 20,0 8 4 12 6 ENE 1017,8 20 9 0,0
24.05.2017 21:00:00 27,1 10,7 23,8 28,3 20,0 7 4 26 14 ENE 1017,6 20 60 0,0
24.05.2017 20:00:00 28,6 10,3 27,7 28,0 20,1 16 9 35 19 ENE 1017,5 20 60 0,0
24.05.2017 19:00:00 29,7 10,8 29,7 27,4 20,0 17 9 34 18 NE 1017,6 20 60 0,0
24.05.2017 18:00:00 30,1 11,1 34,9 26,7 20,0 20 11 31 17 NE 1018,0 20 60 0,0
24.05.2017 17:00:00 30,5 12,4 39,7 25,8 20,1 16 9 30 16 NNW 1018,7 20 60 0,0
24.05.2017 16:00:00 29,8 11,8 39,0 24,8 20,0 19 10 29 16 NNW 1019,4 20 60 0,0
24.05.2017 15:00:00 29,1 12,9 39,0 23,8 20,0 15 8 29 15 NNE 1020,0 25 60 0,0
24.05.2017 14:00:00 27,2 13,9 37,8 22,9 20,0 9 5 26 14 N 1020,5 20 60 0,0
24.05.2017 13:00:00 25,6 14,7 36,3 22,1 20,0 10 6 25 13 ENE 1021,3 20 60 0,0
24.05.2017 12:00:00 24,2 14,9 34,7 21,6 20,0 11 6 22 12 ENE 1021,9 20 60 0,0
24.05.2017 11:00:00 22,1 15,2 28,1 21,4 20,0 10 5 22 12 ENE 1022,3 25 60 0,0
24.05.2017 10:00:00 19,5 14,1 24,0 21,5 20,0 15 8 22 12 NE 1022,6 20 60 0,0
24.05.2017 09:00:00 17,8 14,1 18,2 21,6 20,0 8 4 17 9 ENE 1022,7 20 55 0,0
24.05.2017 08:00:00 16,0 13,8 13,5 21,9 20,0 9 5 16 9 ENE 1022,8 20 27 0,0
24.05.2017 07:00:00 14,5 13,0 13,2 22,2 20,0 8 4 18 10 ENE 1022,5 20 0 0,0
24.05.2017 06:00:00 14,7 12,9 13,2 22,4 19,9 11 6 17 9 ENE 1022,6 20 0 0,0
24.05.2017 05:00:00 14,9 12,9 12,5 22,8 20,0 10 5 14 7 ENE 1022,9 20 0 0,0
24.05.2017 04:00:00 14,6 12,6 12,5 23,1 19,9 9 5 14 7 NE 1023,4 20 0 0,0
24.05.2017 03:00:00 14,4 12,6 12,1 23,4 19,9 5 3 14 8 NE 1023,6 20 0 0,0
24.05.2017 02:00:00 14,6 12,3 13,2 23,8 19,9 8 4 15 8 NE 1023,7 20 0 0,0
24.05.2017 01:00:00 15,2 12,9 12,9 24,1 19,9 8 4 18 10 ENE 1024,1 20 0 0,0
24.05.2017 00:00:00 14,6 12,3 12,8 24,4 19,9 5 3 13 7 NNE 1024,2 18 0 0,0
23.05.2017 23:00:00 15,0 12,3 13,4 24,7 19,9 7 4 13 7 N 1024,1 20 0 0,0
23.05.2017 22:00:00 15,8 12,7 14,5 24,9 19,9 9 5 32 18 N 1023,8 20 9 0,0
23.05.2017 21:00:00 17,2 12,9 16,4 24,9 19,9 24 13 35 19 N 1023,7 20 60 0,0
23.05.2017 20:00:00 18,2 12,9 18,3 24,6 19,9 26 14 33 18 NNW 1023,4 20 60 0,0
23.05.2017 19:00:00 18,6 13,0 20,4 24,2 19,9 24 13 29 16 NNW 1023,6 20 60 0,0
23.05.2017 18:00:00 19,1 13,7 27,3 23,7 19,9 21 11 24 13 NNW 1024,0 20 60 0,0
23.05.2017 17:00:00 18,6 12,6 29,7 23,1 19,8 18 10 22 12 NW 1024,4 20 58 0,0
23.05.2017 16:00:00 17,4 13,1 28,9 22,7 19,8 14 8 19 11 WNW 1024,8 20 2 0,0
23.05.2017 15:00:00 17,8 13,3 30,9 22,3 19,8 14 7 17 9 WNW 1024,9 25 8 0,0
23.05.2017 14:00:00 18,0 13,9 - - - 13 7 15 8 WNW 1025,1 20 - -
23.05.2017 13:00:00 16,4 13,7 20,8 22,0 19,8 11 6 13 7 W 1025,4 20 0 0,0
23.05.2017 12:00:00 15,7 13,7 19,7 22,0 19,8 7 4 16 9 W 1025,5 7 0 0,0
23.05.2017 11:00:00 15,8 13,3 18,8 22,1 19,8 8 5 18 10 WNW 1025,1 20 0 0,0
23.05.2017 10:00:00 16,0 12,9 18,0 22,2 19,7 14 8 18 10 NW 1024,8 20 0 0,0
23.05.2017 09:00:00 15,8 12,5 16,9 22,4 19,7 15 8 23 12 NW 1024,3 20 0 0,0
23.05.2017 08:00:00 15,7 12,6 15,7 22,6 19,7 19 10 22 12 NW 1023,9 25 0 0,0
23.05.2017 07:00:00 15,5 11,7 15,1 22,9 19,7 16 9 20 11 WNW 1023,3 20 0 0,0
23.05.2017 06:00:00 14,9 11,9 15,1 23,1 19,6 9 5 16 9 WNW 1022,9 20 0 0,0
23.05.2017 05:00:00 14,7 12,4 15,1 23,4 19,6 10 5 18 10 W 1022,6 15 0 0,0
23.05.2017 04:00:00 14,6 12,3 15,2 23,7 19,6 11 6 23 12 W 1022,7 16 0 0,0
23.05.2017 03:00:00 14,8 12,7 15,4 24,0 19,5 19 10 24 13 W 1022,5 12 0 0,0
23.05.2017 02:00:00 15,1 12,6 15,7 24,3 19,5 19 10 25 13 W 1022,6 14 0 0,0
23.05.2017 01:00:00 15,2 12,9 15,8 24,7 19,5 21 12 27 14 SW 1022,6 14 0 0,0
23.05.2017 00:00:00 15,4 12,9 16,1 25,0 19,5 22 12 28 15 WSW 1022,3 17 0 0,0
22.05.2017 23:00:00 15,4 12,9 16,3 25,3 19,5 18 10 26 14 W 1022,0 14 0 0,0
22.05.2017 22:00:00 15,4 12,9 16,3 25,6 19,4 20 11 29 16 WSW 1021,2 16 0 0,0
22.05.2017 21:00:00 15,6 13,1 17,1 25,8 19,4 24 13 30 16 WSW 1020,2 14 0 0,0
22.05.2017 20:00:00 16,3 14,0 18,9 25,9 19,4 24 13 32 17 WSW 1019,5 14 0 0,0
22.05.2017 19:00:00 17,0 14,1 22,4 25,8 19,4 27 14 35 19 WSW 1019,3 15 0 0,0
22.05.2017 18:00:00 17,4 14,3 23,9 25,6 19,4 25 13 32 18 WSW 1019,1 16 0 0,0
22.05.2017 17:00:00 18,4 14,7 26,5 25,2 19,3 19 11 24 13 WSW 1019,0 16 1 0,0
22.05.2017 16:00:00 18,6 14,9 26,7 24,5 19,3 18 10 33 18 SW 1019,0 13 2 0,0
22.05.2017 15:00:00 19,5 14,7 32,4 23,6 19,3 24 13 36 19 WSW 1018,5 18 58 0,0
22.05.2017 14:00:00 20,9 15,0 37,3 22,8 19,3 17 9 25 13 SW 1018,0 20 60 0,0
22.05.2017 13:00:00 22,4 13,7 38,7 22,1 19,3 5 3 11 6 WNW 1017,1 25 60 0,0
22.05.2017 12:00:00 21,0 13,4 36,1 21,6 19,3 7 4 12 7 NW 1016,7 20 60 0,0
22.05.2017 11:00:00 20,4 13,8 28,9 21,3 19,2 7 4 12 6 NNW 1016,2 25 57 0,0
22.05.2017 10:00:00 20,1 14,7 20,0 21,4 19,2 9 5 35 19 SSW 1015,9 20 43 0,0
22.05.2017 09:00:00 18,3 11,1 16,8 21,5 19,2 8 4 28 15 S 1014,6 20 0 0,0
22.05.2017 08:00:00 18,0 10,8 16,8 21,7 19,2 10 5 16 9 E 1013,5 20 0 0,0
22.05.2017 07:00:00 17,9 11,0 16,8 21,9 19,2 5 3 19 11 ESE 1013,3 20 0 0,0
22.05.2017 06:00:00 18,7 12,0 16,9 22,1 19,2 5 3 14 8 E 1012,4 20 0 0,0
22.05.2017 05:00:00 19,1 11,6 17,0 22,3 19,2 22 12 45 24 SW 1013,4 20 0 0,0
22.05.2017 04:00:00 19,3 8,9 18,1 22,5 19,1 16 8 39 21 E 1011,7 20 0 0,0
22.05.2017 03:00:00 19,4 8,7 18,6 22,8 19,1 20 11 37 20 E 1011,3 20 0 0,0
22.05.2017 02:00:00 19,7 8,7 18,5 23,1 19,1 20 11 41 22 E 1011,7 20 0 0,0
22.05.2017 01:00:00 19,5 8,8 18,4 23,4 19,1 21 11 37 20 E 1012,1 20 0 0,0
22.05.2017 00:00:00 20,0 9,0 18,7 23,6 19,1 18 10 32 18 E 1012,4 20 0 0,0
21.05.2017 23:00:00 21,1 8,7 19,4 23,8 19,1 20 11 37 20 E 1012,8 20 0 0,0
21.05.2017 22:00:00 22,7 8,4 21,4 23,9 19,1 22 12 39 21 E 1012,8 20 7 0,0
21.05.2017 21:00:00 24,3 7,9 23,8 23,8 19,1 20 11 41 22 E 1013,1 20 17 0,0
21.05.2017 20:00:00 25,8 6,4 25,3 23,5 19,1 22 12 42 23 E 1013,2 20 51 0,0
21.05.2017 19:00:00 27,1 8,0 27,8 23,0 19,1 24 13 45 24 E 1013,4 20 40 0,0
21.05.2017 18:00:00 26,8 7,3 28,9 22,3 19,2 18 10 39 21 E 1014,4 20 35 0,0
21.05.2017 17:00:00 27,5 7,4 34,0 21,5 19,2 19 10 42 23 E 1015,0 20 60 0,0
21.05.2017 16:00:00 26,3 5,8 30,8 20,6 19,2 22 12 44 24 E 1015,8 20 51 0,0
21.05.2017 15:00:00 25,1 6,8 32,6 19,7 19,2 23 13 46 25 E 1016,9 20 60 0,0
21.05.2017 14:00:00 23,5 8,4 27,9 19,0 19,2 23 13 49 26 E 1018,0 20 50 0,0
21.05.2017 13:00:00 21,4 9,3 25,8 18,5 19,2 22 12 43 23 E 1019,0 20 39 0,0
21.05.2017 12:00:00 20,1 9,0 23,1 18,1 19,2 20 11 48 26 E 1019,9 20 31 0,0
21.05.2017 11:00:00 18,6 9,6 21,7 17,9 19,2 23 12 45 24 E 1020,3 20 53 0,0
21.05.2017 10:00:00 17,1 9,8 17,1 18,0 19,2 24 13 44 24 E 1020,5 20 60 0,0
21.05.2017 09:00:00 13,7 8,9 12,3 18,1 19,2 21 11 35 19 E 1021,2 20 40 0,0
21.05.2017 08:00:00 11,4 7,7 10,2 18,3 19,2 16 8 31 17 E 1021,4 20 0 0,0
21.05.2017 07:00:00 10,7 7,2 9,9 18,6 19,2 16 9 30 16 ENE 1021,8 20 0 0,0
21.05.2017 06:00:00 11,1 7,2 10,1 18,9 19,2 16 9 32 17 ENE 1022,4 20 0 0,0
21.05.2017 05:00:00 11,4 7,1 10,4 19,2 19,2 16 9 30 16 ENE 1022,6 20 0 0,0
21.05.2017 04:00:00 11,9 7,2 10,5 19,5 19,2 18 10 32 17 ENE 1023,4 20 0 0,0
21.05.2017 03:00:00 12,0 7,7 10,7 19,9 19,2 16 8 26 14 ENE 1023,7 20 0 0,0
21.05.2017 02:00:00 12,3 8,6 10,6 20,2 19,2 14 8 24 13 ENE 1024,5 20 0 0,0
21.05.2017 01:00:00 12,5 9,0 8,8 20,5 19,2 11 6 17 9 ENE 1025,0 20 0 0,0
21.05.2017 00:00:00 11,5 8,4 9,1 20,9 19,2 5 3 10 5 NE 1025,6 20 0 0,0
20.05.2017 23:00:00 11,5 8,0 10,2 21,1 19,2 7 4 9 5 NE 1025,8 20 0 0,0
20.05.2017 22:00:00 13,1 8,0 10,3 21,3 19,3 5 3 12 6 NNE 1025,8 20 3 0,0
20.05.2017 21:00:00 15,1 8,1 13,0 21,2 19,2 9 5 13 7 NNW 1025,7 20 53 0,0
20.05.2017 20:00:00 16,2 8,9 16,8 21,0 19,3 9 5 13 7 NW 1025,7 20 60 0,0
20.05.2017 19:00:00 17,1 9,5 19,4 20,6 19,3 9 5 16 9 NW 1025,8 20 60 0,0
20.05.2017 18:00:00 17,1 9,8 25,9 20,2 19,3 10 5 20 11 WNW 1025,9 20 60 0,0
20.05.2017 17:00:00 16,9 9,1 27,3 19,7 19,4 16 9 22 12 W 1026,2 20 56 0,0
20.05.2017 16:00:00 17,0 10,6 23,1 19,3 19,4 12 7 27 15 W 1026,2 20 11 0,0
20.05.2017 15:00:00 15,5 10,0 22,3 18,9 19,4 19 10 30 16 W 1026,0 20 9 0,0
20.05.2017 14:00:00 16,3 9,2 25,1 18,4 19,4 23 13 32 17 W 1025,9 20 30 0,0
20.05.2017 13:00:00 16,0 9,2 22,1 18,1 19,5 24 13 36 19 WSW 1025,6 20 28 0,0
20.05.2017 12:00:00 15,2 9,1 18,3 17,8 19,4 29 16 38 20 W 1025,2 20 33 0,0
20.05.2017 11:00:00 14,4 9,0 16,3 17,8 19,5 33 18 44 24 W 1024,6 20 17 0,0
20.05.2017 10:00:00 14,3 10,1 14,6 17,8 19,5 39 21 56 31 WSW 1023,7 20 23 0,0
20.05.2017 09:00:00 13,8 11,0 13,6 17,9 19,5 47 26 57 31 WSW 1022,6 20 11 0,0
20.05.2017 08:00:00 13,7 10,7 12,1 18,1 19,5 38 21 51 28 SW 1021,8 20 5 0,0
20.05.2017 07:00:00 13,1 11,5 11,9 18,2 19,5 39 21 56 30 SSW 1021,2 17 0 0,0
20.05.2017 06:00:00 12,5 11,6 12,2 18,4 19,5 39 21 49 26 S 1021,1 4,2 0 0,8
20.05.2017 05:00:00 12,6 11,0 12,0 18,6 19,5 33 18 42 23 SSW 1021,5 3,4 0 1,0
20.05.2017 04:00:00 13,6 9,0 13,1 18,8 19,6 31 17 40 21 SW 1021,6 20 0 0,0
20.05.2017 03:00:00 13,8 8,6 12,3 19,0 19,6 27 15 34 19 SW 1021,9 20 0 0,0
20.05.2017 02:00:00 13,7 8,1 12,2 19,3 19,6 27 15 38 21 WSW 1022,5 20 0 0,0
20.05.2017 01:00:00 13,8 8,0 11,9 19,6 19,6 31 17 40 22 WSW 1022,5 20 0 0,0
20.05.2017 00:00:00 13,6 8,2 11,7 19,8 19,6 31 17 41 22 WSW 1022,7 20 0 0,0
19.05.2017 23:00:00 13,2 8,1 11,6 20,1 19,6 25 13 40 22 W 1022,8 20 0 0,0
19.05.2017 22:00:00 13,8 8,0 13,0 20,4 19,7 31 17 37 20 WSW 1022,3 20 5 0,0
19.05.2017 21:00:00 13,9 8,1 13,2 20,5 19,7 31 17 43 23 WSW 1022,0 20 52 0,0
19.05.2017 20:00:00 15,0 7,3 15,5 20,5 19,8 35 19 46 25 WSW 1021,9 20 35 0,0
19.05.2017 19:00:00 15,5 8,9 15,8 20,3 19,8 39 21 50 27 WSW 1021,7 20 44 0,0
19.05.2017 18:00:00 14,4 9,2 17,4 20,0 19,9 38 21 61 33 WSW 1021,6 20 42 0,0
19.05.2017 17:00:00 14,0 10,6 15,4 19,5 19,9 34 18 51 28 WSW 1021,5 17 28 0,4
19.05.2017 16:00:00 16,3 8,8 24,2 19,0 20,0 36 19 46 25 SW 1021,2 20 44 0,0
19.05.2017 15:00:00 15,8 9,2 23,1 18,4 20,0 35 19 42 23 SSW 1021,2 20 36 0,0
19.05.2017 14:00:00 15,2 9,1 24,1 17,8 20,1 35 19 44 24 SW 1020,8 20 43 0,0
19.05.2017 13:00:00 15,7 8,7 23,9 17,2 20,1 29 16 35 19 WSW 1020,6 20 48 0,0
19.05.2017 12:00:00 15,2 8,4 15,6 16,8 20,2 23 12 49 27 WSW 1020,4 20 48 0,0
19.05.2017 11:00:00 14,8 8,5 15,5 16,6 20,2 27 15 36 19 WSW 1020,0 20 30 0,0
19.05.2017 10:00:00 13,9 9,3 12,0 16,6 20,2 27 14 42 23 W 1019,8 20 28 0,2
19.05.2017 09:00:00 13,4 7,4 12,2 16,6 20,3 26 14 35 19 WSW 1019,5 20 30 0,0
19.05.2017 08:00:00 12,1 8,0 10,1 16,8 20,3 28 15 46 25 W 1019,2 20 14 0,0

tt = Température de l'air
td = dewpoint
tt 5cm = Température de l'air 5cm
tt -20cm = Température de l'air -20cm
tt -100cm = Température de l'air -100cm
ff = Vitesse du vent
fx = gusts
dd = Direction du vent
ppp = reduced air pressure
vv = visibility
sd = Ensoleillement
rr = Quantités de précipitations

stations d'obs. à proximité